Weather in Novoaidar

Ukraine / Luhansk Region     48°58′23″N   39°00′11″E
temp.,
°C
wind,
m/s
gust,
m/s
humid.,
%
clouds,
%
prec.,
mm/h
press.,
hPa
HPBL,
m
20 april, tue
tue2000:00+11ne357998 0.4 1013169
03:00+11ene368399 0.6 1012220
06:00+10ene4883100 0.0 1010337
09:00+13e5777100 0.1 1009771
12:00+11se51092100 2.4 1006638
15:00+11ese699390 12.6 1004457
18:00+11sse4794100 2.0 1002388
21:00+11ssw81181100 2.6 1003856
21 april, wed
wed2100:00+10s91487100 0.3 1003936
03:00+10wsw91487100 0.6 1006983
06:00+9sw71186100 0.1 1009718
09:00+11wsw810695 0.2 1012949
12:00+14wsw794999 0.1 10132170
15:00+13wsw585181 0.2 1014859
18:00+13wsw365889 0.1 1016563
21:00+10ssw357232 0.3 101777
22 april, thu
thu2200:00+8ssw49795 0.0 1018188
03:00+7ssw38895 0.0 1019160
06:00+7ssw37895 0.0 1020156
09:00+13sw46655 0.0 1021655
12:00+16sw454649 0.4 10212020
15:00+17sw4538100 0.4 10202448
18:00+16wsw225081 0.0 1020168
21:00+12ssw346042 0.0 102265
23 april, fri
fri2300:00+11ssw236814 0.1 102250
03:00+10sw127347 0.1 102117
06:00+11sw1171100 0.0 102215
09:00+13sw2366100 0.0 1022307
12:00+17ssw33484 0.1 10221283
15:00+17ssw3442100 0.1 10201997
18:00+17ssw344644 0.0 1020615
21:00+13s225470 0.0 101918
24 april, sat
sat2400:00+12ssw49695 0.0 1018250
03:00+9ssw347781 0.0 101768
06:00+8s3978100 0.0 1016237
09:00+12ssw6860100 0.0 1015630
12:00+11w91077100 0.6 1016809
15:00+9wnw696441 0.6 10161158
18:00+12wsw7114966 0.0 10151981
21:00+7w712452 0.0 1018738